Find Zhangheng 1-02

NORAD ID: 64393 Int'l Des: 2025-128 Owner: CAS Country: CN operational
LEOCIRCULARRETROGRADESSO

リアルタイム位置

3D地球を読み込み中...

Zhangheng 1-02について

説明を読み込み中...

次回通過

Passes for default location (London). Set your location on the main map for personalized predictions.

高度履歴

Loading altitude history...

軌道要素

1 64393U 25128A 26104.89476266 -.00000040 00000-0 12670-5 0 9990
2 64393 97.3500 233.1745 0012111 341.4267 18.6525 15.20965522 46306
Epoch: Apr 14, 2026 • Age: 4 hours

現在のステータス

高度 529.0 km
速度 7.60 km/s
衛星直下点 -81.92°S, 118.52°E
打ち上げ日 Jun 14, 2025
運用期間 0.8 years
タイプ other

技術仕様

分類 Payload
質量 730.00 kg
乾燥質量 700.00 kg
総質量 730.00 kg
長さ 1.40 m
直径 1.00 m
スパン 4.00 m
形状 Box+2 pan
製造者 DFHZ
バスタイプ CAST-2000
フェーズステータス In Orbit
所有者/国 CAS/CN

Most Searched